La Grande, OR

7:32 PM PDT on March 24, 2017 (GMT -0700)
La Grande-Union County

Weather History for KLGD - February, 2013

Change the Weather History Date:

Thursday, February 28, 2013

  Actual Average Record
Temperature  
Mean Temperature 38 °F -  
Max Temperature 41 °F 42 °F 64 °F (1992)
Min Temperature 35 °F 26 °F 13 °F (1971)
Degree Days  
Heating Degree Days 27    
Moisture  
Dew Point 27 °F    
Average Humidity 64    
Maximum Humidity 75    
Minimum Humidity 42    
Precipitation  
Precipitation 0.08 in - - ()
Sea Level Pressure  
Sea Level Pressure 30.34 in    
Wind  
Wind Speed 14 mph (South)    
Max Wind Speed 20 mph    
Max Gust Speed 26 mph    
Visibility 10 miles    
Events      
Averages and records for this station are not official NWS values.
T = Trace of Precipitation, MM = Missing Value Source: NWS Daily Summary

Daily Weather History Graph

Daily Weather History Graph

Search for Another Location

Airport or City:

Trip Planner

Search our weather history database for the weather conditions in past years. The results will help you decide how hot, cold, wet, or windy it might be!

Date:

Astronomy

Feb. 28, 2013 Rise Set
Actual Time 6:31 AM PST 5:38 PM PST
Civil Twilight 6:01 AM PST 6:08 PM PST
Nautical Twilight 5:27 AM PST 6:42 PM PST
Astronomical Twilight 4:53 AM PST 7:16 PM PST
Moon 9:23 PM PST (2/28) 7:32 AM PST (2/28)
Length of Visible Light 12h 06m
Length of Day
11h 07m
Waning Gibbous, 90% of the Moon is Illuminated
Feb 28
Waning Gibbous
Mar 4
Last Quarter
Mar 11
New
Mar 19
First Quarter
Mar 27
Full

Hourly Weather History & Observations

Time (PST) Temp. Windchill Dew Point Humidity Pressure Visibility Wind Dir Wind Speed Gust Speed Precip Events Conditions
12:55 AM 39.2 °F 30.8 °F 21.2 °F 49% 30.26 in 10.0 mi South 15.0 mph - N/A   Overcast
1:15 AM 39.2 °F 30.5 °F 19.4 °F 45% 30.26 in 10.0 mi South 16.1 mph 19.6 mph N/A   Overcast
1:55 AM 41.0 °F 32.5 °F 19.4 °F 42% 30.25 in 10.0 mi South 17.3 mph 21.9 mph N/A   Overcast
2:35 AM 41.0 °F 33.1 °F 21.2 °F 45% 30.26 in 10.0 mi South 15.0 mph 20.7 mph N/A   Overcast
2:55 AM 41.0 °F 33.9 °F 21.2 °F 45% 30.26 in 10.0 mi SSW 12.7 mph - N/A   Overcast
3:15 AM 39.2 °F 29.6 °F 21.2 °F 49% 30.26 in 10.0 mi South 19.6 mph 23.0 mph N/A   Overcast
3:35 AM 39.2 °F 30.5 °F 21.2 °F 49% 30.25 in 10.0 mi South 16.1 mph 20.7 mph N/A   Overcast
3:55 AM 39.2 °F 30.8 °F 21.2 °F 49% 30.25 in 10.0 mi South 15.0 mph 19.6 mph N/A   Overcast
4:15 AM 39.2 °F 31.6 °F 21.2 °F 49% 30.25 in 10.0 mi South 12.7 mph - N/A   Overcast
4:35 AM 39.2 °F 31.2 °F 23.0 °F 52% 30.26 in 10.0 mi South 13.8 mph - N/A   Overcast
4:55 AM 39.2 °F 33.0 °F 23.0 °F 52% 30.26 in 10.0 mi South 9.2 mph 23.0 mph N/A   Overcast
5:15 AM 39.2 °F 32.5 °F 23.0 °F 52% 30.27 in 10.0 mi South 10.4 mph - N/A   Overcast
5:35 AM 39.2 °F 31.6 °F 23.0 °F 52% 30.28 in 10.0 mi South 12.7 mph 18.4 mph N/A   Overcast
5:55 AM 37.4 °F 28.2 °F 23.0 °F 56% 30.28 in 10.0 mi South 16.1 mph 19.6 mph N/A   Overcast
6:15 AM 37.4 °F 29.8 °F 24.8 °F 60% 30.29 in 10.0 mi SSE 11.5 mph - N/A   Overcast
6:35 AM 35.6 °F 30.7 °F 24.8 °F 65% 30.29 in 10.0 mi SSE 5.8 mph - N/A   Overcast
6:55 AM 37.4 °F 29.8 °F 26.6 °F 65% 30.29 in 10.0 mi South 11.5 mph - N/A   Overcast
7:15 AM 35.6 °F 27.5 °F 24.8 °F 65% 30.29 in 10.0 mi South 11.5 mph - N/A   Overcast
7:35 AM 37.4 °F 29.3 °F 26.6 °F 65% 30.30 in 10.0 mi South 12.7 mph - N/A   Overcast
7:55 AM 37.4 °F 29.8 °F 26.6 °F 65% 30.30 in 10.0 mi South 11.5 mph 20.7 mph N/A   Overcast
8:15 AM 37.4 °F 29.3 °F 26.6 °F 65% 30.30 in 10.0 mi South 12.7 mph 18.4 mph N/A   Overcast
8:35 AM 37.4 °F 28.9 °F 26.6 °F 65% 30.31 in 10.0 mi South 13.8 mph - N/A   Overcast
8:55 AM 37.4 °F 29.8 °F 26.6 °F 65% 30.32 in 10.0 mi South 11.5 mph - N/A   Overcast
9:15 AM 37.4 °F 28.5 °F 26.6 °F 65% 30.32 in 10.0 mi South 15.0 mph 24.2 mph N/A   Overcast
9:55 AM 37.4 °F 27.2 °F 26.6 °F 65% 30.32 in 10.0 mi South 19.6 mph 26.5 mph N/A   Overcast
10:15 AM 39.2 °F 31.2 °F 26.6 °F 61% 30.33 in 10.0 mi South 13.8 mph 20.7 mph N/A   Overcast
10:35 AM 39.2 °F 29.8 °F 26.6 °F 61% 30.33 in 10.0 mi South 18.4 mph 21.9 mph N/A   Overcast
10:55 AM 39.2 °F 29.6 °F 26.6 °F 61% 30.33 in 10.0 mi South 19.6 mph 23.0 mph N/A   Overcast
11:15 AM 39.2 °F 29.6 °F 26.6 °F 61% 30.33 in 10.0 mi South 19.6 mph 24.2 mph N/A   Overcast
11:35 AM 37.4 °F 27.8 °F 26.6 °F 65% 30.34 in 10.0 mi South 17.3 mph - N/A   Overcast
11:55 AM 37.4 °F 27.8 °F 26.6 °F 65% 30.34 in 10.0 mi South 17.3 mph - N/A   Overcast
12:15 PM 37.4 °F 28.2 °F 28.4 °F 70% 30.34 in 10.0 mi South 16.1 mph - N/A   Overcast
2:15 PM 37.4 °F 28.2 °F 28.4 °F 70% 30.34 in 10.0 mi South 16.1 mph - N/A   Overcast
2:35 PM 37.4 °F 27.8 °F 30.2 °F 75% 30.34 in 10.0 mi South 17.3 mph 21.9 mph N/A   Overcast
2:55 PM 37.4 °F 28.5 °F 28.4 °F 70% 30.34 in 10.0 mi South 15.0 mph - N/A   Overcast
3:15 PM 37.4 °F 28.9 °F 28.4 °F 70% 30.34 in 10.0 mi SSE 13.8 mph 20.7 mph N/A   Overcast
3:35 PM 37.4 °F 28.2 °F 30.2 °F 75% 30.34 in 10.0 mi South 16.1 mph 21.9 mph N/A   Overcast
3:55 PM 37.4 °F 28.5 °F 30.2 °F 75% 30.35 in 10.0 mi South 15.0 mph 20.7 mph 0.03 in   Overcast
4:15 PM 37.4 °F 29.3 °F 30.2 °F 75% 30.36 in 10.0 mi South 12.7 mph - 0.01 in   Overcast
4:35 PM 39.2 °F 32.5 °F 30.2 °F 70% 30.36 in 10.0 mi South 10.4 mph - 0.02 in   Overcast
4:55 PM 39.2 °F 31.6 °F 30.2 °F 70% 30.36 in 10.0 mi South 12.7 mph 17.3 mph 0.03 in   Overcast
5:15 PM 39.2 °F 33.0 °F 30.2 °F 70% 30.37 in 9.0 mi South 9.2 mph - N/A   Overcast
5:35 PM 39.2 °F 32.0 °F 30.2 °F 70% 30.36 in 10.0 mi South 11.5 mph - N/A   Overcast
5:55 PM 39.2 °F 31.2 °F 30.2 °F 70% 30.37 in 10.0 mi South 13.8 mph - N/A   Overcast
6:15 PM 39.2 °F 33.0 °F 30.2 °F 70% 30.37 in 10.0 mi South 9.2 mph - N/A   Overcast
6:35 PM 39.2 °F 35.0 °F 30.2 °F 70% 30.37 in 10.0 mi SSE 5.8 mph - N/A   Overcast
6:55 PM 39.2 °F 33.0 °F 30.2 °F 70% 30.38 in 10.0 mi South 9.2 mph - N/A   Overcast
7:15 PM 39.2 °F 31.6 °F 30.2 °F 70% 30.39 in 10.0 mi SSW 12.7 mph - 0.01 in   Overcast
7:35 PM 39.2 °F 33.6 °F 30.2 °F 70% 30.39 in 10.0 mi SSW 8.1 mph - 0.01 in   Overcast
7:55 PM 39.2 °F - 30.2 °F 70% 30.39 in 10.0 mi Calm Calm - 0.01 in   Overcast
8:15 PM 39.2 °F - 30.2 °F 70% 30.39 in 10.0 mi Calm Calm - N/A   Overcast
8:35 PM 39.2 °F 32.0 °F 30.2 °F 70% 30.40 in 10.0 mi SSW 11.5 mph - N/A   Overcast
8:55 PM 39.2 °F 33.0 °F 30.2 °F 70% 30.40 in 10.0 mi SSW 9.2 mph - N/A   Overcast
9:15 PM 39.2 °F 32.5 °F 30.2 °F 70% 30.41 in 9.0 mi SSW 10.4 mph - N/A   Overcast
9:35 PM 39.2 °F 32.0 °F 30.2 °F 70% 30.42 in 10.0 mi SSW 11.5 mph 18.4 mph 0.01 in   Overcast
9:55 PM 39.2 °F 32.5 °F 30.2 °F 70% 30.42 in 10.0 mi South 10.4 mph - 0.01 in   Overcast
10:15 PM 39.2 °F 33.0 °F 30.2 °F 70% 30.42 in 10.0 mi SSW 9.2 mph - N/A   Overcast
10:35 PM 39.2 °F 31.6 °F 32.0 °F 75% 30.42 in 10.0 mi SSW 12.7 mph - N/A   Overcast
10:55 PM 39.2 °F 33.0 °F 32.0 °F 75% 30.43 in 10.0 mi SSW 9.2 mph - N/A   Overcast
11:15 PM 39.2 °F - 32.0 °F 75% 30.43 in 10.0 mi Calm Calm - N/A   Overcast
11:35 PM 39.2 °F 32.5 °F 30.2 °F 70% 30.43 in 10.0 mi South 10.4 mph - N/A   Overcast
11:55 PM 39.2 °F 31.6 °F 30.2 °F 70% 30.43 in 10.0 mi SSW 12.7 mph 16.1 mph N/A   Overcast